This is the latest recevied weather packets stored in our database for station/object NO9B. If no packets are shown the sender has not sent any weather packets the latest 10 day(s).
| Time | Temp. | Humidity | Pressure | Rain* | Wind** | Luminosity | Snow |
|---|---|---|---|---|---|---|---|
| 1788051524 | 22.22° C | 81% | 1016.5 hPa | 0 mm | - | 0 W/m² | - |
| 1788051222 | 22.22° C | 82% | 1016.5 hPa | 0 mm | - | 0 W/m² | - |
| 1788050922 | 22.22° C | 81% | 1016.5 hPa | 0 mm | - | 0 W/m² | - |
| 1788050617 | 22.22° C | 81% | 1016.3 hPa | 0 mm | - | 0 W/m² | - |
| 1788050316 | 22.22° C | 81% | 1016.6 hPa | 0 mm | - | 1 W/m² | - |
| 1788050016 | 22.22° C | 82% | 1016.7 hPa | 0 mm | - | 1 W/m² | - |
| 1788049713 | 22.22° C | 81% | 1016.5 hPa | 0 mm | - | 2 W/m² | - |
| 1788049409 | 22.22° C | 81% | 1016.6 hPa | 0 mm | - | 3 W/m² | - |
| 1788049104 | 22.22° C | 81% | 1016.8 hPa | 0 mm | - | 5 W/m² | - |
| 1788048800 | 22.22° C | 81% | 1016.8 hPa | 0 mm | - | 9 W/m² | - |
| 1788048499 | 22.22° C | 79% | 1016.7 hPa | 0 mm | - | 13 W/m² | - |
| 1788048197 | 22.22° C | 79% | 1017 hPa | 0 mm | - | 14 W/m² | - |
| 1788047895 | 22.22° C | 81% | 1017 hPa | 0 mm | - | 19 W/m² | - |
| 1788047590 | 22.22° C | 84% | 1017.1 hPa | 0 mm | - | 25 W/m² | - |
| 1788047289 | 21.67° C | 83% | 1017.1 hPa | 0 mm | - | 29 W/m² | - |
| 1788046984 | 21.67° C | 85% | 1017.3 hPa | 0 mm | - | 24 W/m² | - |
| 1788046683 | 21.67° C | 83% | 1017.4 hPa | 0 mm | - | 18 W/m² | - |
| 1788046378 | 21.67° C | 85% | 1017.5 hPa | 0 mm | - | 18 W/m² | - |
| 1788046075 | 21.67° C | 87% | 1017.5 hPa | 0 mm | - | 19 W/m² | - |
| 1788045771 | 21.67° C | 86% | 1017.6 hPa | 0 mm | - | 22 W/m² | - |
| 1788045466 | 22.22° C | 87% | 1017.5 hPa | 0 mm | - | 22 W/m² | - |
| 1788045163 | 22.22° C | 88% | 1017.4 hPa | 0 mm | - | 19 W/m² | - |
| 1788044862 | 22.22° C | 88% | 1017.4 hPa | 0 mm | - | 23 W/m² | - |
| 1788044557 | 22.22° C | 89% | 1017.5 hPa | 0 mm | - | 24 W/m² | - |
| 1788044256 | 22.22° C | 90% | 1017.4 hPa | 0 mm | - | 29 W/m² | - |
* Rain latest hour (hover to see other rain measurements)
** Current wind speed in m/s (hover to see current wind gust speed)